ATLAS D DEB, 2337

Orbit data source: Space-Track

ATLAS D DEB, 2337 is space debris in LEO originally from a launch on Thu, 14 Jul 1966 UTC launched from the Air Force Western Test Range (AFWTR). Debris objects in space refer to the collection of defunct objects orbiting the Earth. Examples of debris include non-operational satellites, rocket bodies, and fragments generated from explosions, collisions, or faulty payload assembly.

Loading next visibility...
Identifier
2337, 1966-063E
Orbit
LEO
Country
Flag of USUS
Related business
Manufacturer
Unknown
Mission
Spacecraft
Bus & Motor
Unknown
Mass
9 kg wet, 9 kg dry
Launch date (UTC)
1966-07-14 (60 years ago)
Launch vehicle
Unknown
Launch site
Air Force Western Test Range (AFWTR)
Object type
Payload
Rocket body
Debris
Shape & HBR
FRUST, 1.1 m
Radar Cross Section
Medium (>0.1 m² and <1 m²)

Expand to show TLE details & history
Last TLE update: 22 hours ago

TLE from 22 hours ago
0 ATLAS D DEB
1 02337U 66063E   26264.33599240  .00000307  00000-0  63333-4 0  9993
2 02337 144.2330 298.7236 0006042 318.8775  58.2199 13.72308664 15271
Epoch: 2026-09-21T08:03Z
TLE epoch observation values (Epoch: 2026-09-21T08:03:49.743Z)
Latitude
9.94438°
Longitude
163.53692°
Altitude
987.268 km
Speed
7.362 km/s
True Right ascension
18h 58m 50s
True Declination
9° 53' 16"
Sunlit
Object was in daylight at epoch
Visualization orbit readout
Latitude
Unknown
Longitude
Unknown
Altitude
Unknown
Speed
Unknown
Apparent Right ascension
Unknown
Apparent Declination
Unknown
Sunlit
N/A
Visualization observer readout
Local Sidereal Time
23:24:05
Azimuth
Unknown
Elevation
Unknown
Doppler factor
Unknown
Orbital elements
Apogee altitude
998.668 km
Perigee altitude
989.759 km
Semi-major axis
7,372.35 km
Eccentricity
0.0006
Inclination
144.233°
RAAN
298.7236°
Arg. of periapsis
318.8775°
True anomaly
58.27878°
Mean anomaly
58.2199°
Eccentric anomaly
58.24934°
Mean motion
3.42874 °/min
Orbital period
104.99 mins
BSTAR
0.000063333
Loading maneuver chart data...
Computing Atmospheric mass density...
Loading historical data...
Loading historical data...
Loading historical data...
Loading historical data...
Loading historical data...
Loading historical data...
Loading historical data...

Documentation

Showing up to 5 results
|